Powrót do katalogu

BREEZE-M DEB

TANK

AktywnyHEO
NORAD 32488·DEBRIS·🇷🇺 Russia

Wystrzelony Feb 11, 2008 z Baikonur Cosmodrome

Loading…

Następne Przeloty (najbliższe 24 godziny)

TLE

ŚwieżeSource: Space-Track

Epoka: Sep 14, 2026, 09:05 UTC

1 32488U 08006B   26257.37896426 -.00000099  00000-0  90697-3 0  9999
2 32488  48.5265 151.7345 7160756  31.3208 356.3118  2.21552329150163

Śledź BREEZE-M DEB w czasie rzeczywistym z AllMySat

Download on the App Store